Regional Weather Roundup
Issued by NWS Goodland, KS

Home | Current Version | Previous Version | Text Only | Print | Product List | Glossary Off
Versions: 1 2 3 4 5 6 7 8 9 10 11 12 13 14 15 16 17 18 19 20 21 22 23 24 25 26 27 28 29 30 31 32 33 34 35 36 37 38 39 40 41 42 43 44 45 46 47 48 49 50

000
ASUS43 KGLD 061459
RWRGLD

GOODLAND FORECAST AREA HOURLY WEATHER ROUNDUP
NATIONAL WEATHER SERVICE GOODLAND KS
900 AM MDT MON JUL 06 2015

...OFFICIAL OBSERVATIONS...

CITY           SKY/WX    TMP DP  RH WIND       PRES   REMARKS
GOODLAND KS    CLOUDY    64  60  87 N28G37    30.09R
HILL CITY KS   CLOUDY    72  69  90 N21G28    29.93R
IMPERIAL NEB   CLOUDY    65  58  78 N18G26    30.10R
MCCOOK NEB     CLOUDY    70  62  76 N23G30    30.01R
AKRON CO       CLOUDY    59  58  96 N15G24    30.21R
BURLINGTON CO  CLOUDY    64  60  87 N22       30.13R
LIMON CO       CLOUDY    60  59  96 N18G25    30.22R FOG
$$

...UNOFFICIAL OBSERVATIONS...

CITY           SKY/WX    TMP DP  RH WIND       PRES   REMARKS
COLBY KS       CLOUDY    66  66 100 N18       30.06R
GOVE KS          N/A     71  32  23 MISG        N/A
NORTON KS      CLOUDY    68  63  83 N16G25    29.96R
SHARON SPRINGS   N/A     67  62  83 N20G26      N/A
KIT CARSON CO    N/A     65  60  82 MISG        N/A
YUMA CO          N/A     61  59  92 NE13        N/A
$$



USA.gov is the U.S. government's official web portal to all federal, state and local government web resources and services.